RH
29 26 23 23 24 26 30 32 35 38 47 59 78 82 81 72 74 82 72 62 52 64 69 70 68 69 69 68 67 63 60 58 56 52 50 49 54 58 58 59 54 56 60
26 25 24 25 26 28 33 39 43 44 48 68 75 82 83 74 87 73 60 60 63 67 67 69 71 70 70 69 68 65 64 62 61 56 52 53 60 60 61 64 61 59 52
26 25 25 26 29 38 47 48 47 49 69 76 83 86 98 97 64 55 55 56 68 71 74 75 75 78 72 67 66 65 65 68 66 64 63 59 56 55 74 65 62 62 58
25 25 26 30 39 47 50 50 52 59 82 89 93 95 88 75 69 64 59 73 78 79 84 83 81 76 71 68 72 75 72 83 79 76 69 62 62 60 64 70 65 56 55
26 28 31 34 44 51 51 52 58 64 78 85 94 88 86 86 72 79 83 82 80 76 72 67 67 75 84 83 79 77 80 80 76 78 66 56 54 55 58 60 71 73 79
28 31 34 37 51 53 51 56 67 74 82 81 88 80 78 80 66 60 63 75 72 66 65 65 68 73 73 84 86 88 88 91 91 76 68 76 71 66 68 64 87 80 62
33 35 37 44 53 52 56 68 76 73 77 93 88 74 70 76 58 57 62 76 72 71 71 72 73 72 81 79 78 85 93 88 87 89 86 71 65 61 69 80 76 84 76
37 40 44 51 55 57 62 73 70 70 82 90 79 73 69 63 57 57 55 74 74 73 75 78 75 77 78 84 94 85 81 70 78 86 89 86 80 81 78 88 91 85 76
42 47 53 58 66 72 73 69 67 71 80 72 77 72 66 63 60 60 68 84 83 82 82 79 80 79 88 94 86 87 76 70 80 81 90 92 94 96 96 86 86 80 70
53 58 62 69 71 75 72 68 67 65 71 79 76 69 63 64 64 61 82 87 89 84 81 74 83 90 94 86 79 85 84 81 77 81 80 84 92 93 96 90 74 88 72
64 64 72 68 73 76 69 68 67 72 78 81 71 67 66 69 71 65 84 90 88 85 78 71 78 94 83 83 87 90 95 94 91 88 82 75 76 84 90 97 83 74 67
56 72 75 66 74 75 78 75 71 77 84 77 68 72 72 72 74 72 80 96 92 88 87 79 86 89 88 92 91 94 96 98 95 92 88 82 83 85 86 90 98 99 88
71 82 77 77 82 83 83 80 76 79 81 81 80 83 80 88 89 74 80 86 97 87 93 81 88 87 86 85 92 97 93 93 95 90 88 89 94 99 99 98 98 100 100
82 86 89 83 75 85 94 86 77 83 83 79 86 84 82 88 92 88 94 96 94 88 89 77 74 76 71 86 85 86 85 89 99 96 95 95 99 98 98 99 98 99 98
89 88 89 91 84 93 99 83 80 80 81 88 86 89 92 92 91 83 94 93 89 88 74 82 79 80 70 73 76 78 72 74 89 99 96 95 93 93 92 98 98 98 95
95 91 91 95 95 99 97 87 80 80 87 82 79 89 94 86 87 87 96 92 82 79 77 78 78 86 81 71 77 76 73 69 83 99 98 96 96 95 93 89 91 94 92
94 96 96 100 100 100 100 99 91 89 86 84 79 80 86 82 85 89 97 92 86 80 81 82 90 86 84 74 73 74 69 72 80 98 100 100 100 96 92 88 87 84 81
79 88 99 100 100 100 100 100 100 100 96 89 83 80 79 82 96 99 98 95 93 91 87 83 88 90 86 76 74 76 75 76 73 75 99 100 100 98 92 90 88 88 79
93 100 99 100 100 100 100 99 100 100 100 94 94 93 78 79 86 98 100 99 95 90 91 86 90 92 90 88 89 93 95 90 75 79 86 100 100 96 91 93 93 96 85
98 99 87 99 100 100 100 100 97 99 97 96 97 94 90 78 97 99 100 100 100 100 99 96 92 94 97 96 97 98 92 91 85 76 80 94 100 99 92 96 95 91 82
92 93 86 99 97 99 100 100 94 94 100 97 93 98 76 80 90 94 98 100 90 98 100 100 100 99 98 96 96 95 93 94 95 84 78 86 100 96 92 94 94 91 86
74 79 93 100 100 100 100 100 97 91 94 95 90 96 85 93 98 100 100 97 87 86 90 94 98 99 98 98 99 100 96 94 97 91 80 75 97 93 92 90 90 88 86
99 95 98 100 100 100 100 100 100 99 100 100 100 99 99 99 100 97 96 76 79 87 90 87 85 83 84 88 86 84 91 94 100 80 48 75 96 93 92 88 87 82 83
100 100 100 100 100 100 100 100 100 97 94 98 100 100 98 98 100 96 88 79 78 81 88 87 88 83 84 88 87 87 82 77 83 88 54 54 95 96 93 85 89 90 87
100 100 100 100 99 100 100 100 99 100 100 100 100 100 100 99 99 98 89 82 83 80 82 87 88 85 84 86 87 88 85 83 87 89 68 61 77 70 97 88 96 89 92
98 98 99 99 98 98 100 100 99 99 99 99 100 100 99 98 99 99 97 92 86 88 81 86 84 85 86 86 86 89 88 85 89 89 73 61 66 93 94 93 95 94 91
Wind_Speed
5 3 2 6 8 8 9 10 13 18 19 19 17 17 15 14 14 16 15 12 13 14 11 11 13 14 17 19 19 20 20 20 21 33 29 29 29 27 26 25 26 25 21
3 1 5 7 10 9 9 10 14 19 20 19 17 13 11 14 16 15 9 9 13 10 10 12 16 18 20 21 20 21 22 22 24 29 29 27 25 25 25 24 23 21 22
2 5 9 10 10 11 10 13 17 21 20 17 15 12 16 15 11 8 9 13 6 8 12 16 18 19 22 22 22 24 22 22 22 25 29 27 25 23 24 20 21 23 21
6 10 12 13 13 12 12 15 18 20 18 15 13 14 12 8 10 7 6 5 9 12 14 16 18 19 21 23 23 23 22 20 22 23 26 26 23 22 20 18 18 18 20
10 14 15 15 14 12 13 16 19 19 16 15 11 10 11 4 3 3 6 9 11 14 16 17 17 19 20 18 19 20 21 22 22 21 23 22 22 19 18 19 17 18 18
11 14 15 14 12 12 15 18 18 17 15 12 8 8 1 2 3 8 10 11 13 14 17 19 17 16 16 18 18 18 18 24 24 24 23 21 20 19 19 19 14 13 10
12 11 12 11 12 14 17 17 15 14 14 10 9 3 1 2 8 10 13 10 12 15 16 16 16 16 17 17 18 21 21 20 22 24 24 23 21 20 19 19 16 12 13
9 11 12 12 14 16 17 14 14 16 11 7 4 4 3 5 9 11 13 10 12 14 15 15 16 17 16 18 22 20 18 20 19 17 19 22 21 21 20 19 15 16 15
10 11 11 13 16 16 14 12 14 13 7 5 5 6 4 5 9 11 11 10 13 15 14 15 16 16 16 20 20 19 20 20 16 18 20 21 21 21 20 18 17 14 14
9 10 14 16 17 16 12 11 13 10 8 7 6 5 5 7 8 9 9 11 14 16 15 15 13 14 18 19 19 18 19 19 21 19 17 15 13 14 15 15 16 14 13
10 14 14 15 16 11 10 12 12 9 7 8 7 5 6 8 8 9 9 11 12 15 15 16 14 15 18 17 15 13 17 20 18 16 16 14 13 12 10 7 11 16 17
13 12 11 16 13 9 10 11 10 7 6 7 7 7 8 9 9 9 10 10 11 14 15 15 15 17 17 14 12 14 15 14 14 14 14 13 13 13 12 11 10 12 15
12 9 10 12 12 10 11 11 8 7 8 7 7 7 8 8 8 10 10 11 10 12 12 14 14 15 14 11 12 13 12 12 13 14 14 15 15 14 14 11 10 11 13
11 10 12 12 15 14 13 10 9 8 9 8 8 9 9 9 8 8 8 9 11 11 12 11 11 12 11 10 11 11 12 11 11 12 14 15 14 14 13 14 10 7 9
9 10 12 11 14 14 11 9 8 8 8 9 11 10 10 10 10 9 7 9 10 10 13 9 8 10 11 11 11 11 12 13 12 13 14 15 14 14 15 15 13 11 9
8 10 11 12 13 11 9 9 11 11 12 11 12 13 13 15 13 11 9 9 10 11 8 8 8 9 10 11 11 12 11 13 13 12 12 13 14 14 15 14 13 11 10
10 12 13 14 14 12 11 11 13 11 13 14 12 12 14 15 13 12 10 10 11 10 8 8 8 8 8 9 10 10 12 12 12 10 11 12 13 13 13 13 13 12 11
13 15 15 15 13 12 13 13 12 14 11 11 12 13 13 13 14 13 11 10 11 9 9 9 8 7 8 8 9 9 10 11 11 11 10 11 11 11 12 12 12 12 11
14 13 16 17 16 15 14 13 12 11 12 13 12 14 14 14 14 15 14 14 14 12 11 10 9 8 8 8 8 8 8 9 11 10 9 10 11 11 11 11 11 11 11
13 18 22 18 15 15 14 14 12 12 13 14 15 16 12 14 13 15 16 15 15 14 13 12 10 9 9 8 8 7 8 8 9 9 9 9 9 9 10 10 10 11 11
14 15 18 15 20 17 16 15 13 13 15 16 17 17 18 15 15 16 16 16 19 16 14 13 12 10 10 9 8 7 7 7 7 8 8 8 8 9 9 8 8 8 9
18 18 16 17 19 16 15 16 15 15 16 17 17 16 20 22 19 18 17 18 20 21 19 16 14 12 11 10 8 7 8 7 7 7 7 8 7 8 8 8 8 8 8
20 18 15 16 17 17 15 16 16 16 16 17 17 17 16 19 20 22 21 22 22 22 21 20 19 17 15 14 13 11 9 8 7 9 9 8 7 7 8 8 8 8 8
16 17 15 16 16 16 15 15 17 21 20 19 19 21 21 20 21 25 29 27 24 22 22 22 21 19 16 15 14 12 11 10 9 8 8 8 7 7 7 7 7 7 7
16 16 17 17 16 16 15 15 17 19 20 20 22 23 25 26 27 27 29 30 29 25 24 23 22 20 18 16 15 13 11 10 9 8 8 7 7 7 6 6 6 6 6
17 19 18 15 14 15 14 15 15 17 18 20 21 21 24 25 27 29 31 30 31 29 25 24 23 21 19 17 15 13 12 10 9 8 7 7 7 5 5 5 5 5 5
Wind_Direction
132 117 35 4 348 331 325 328 335 334 328 315 304 292 284 270 276 295 287 274 287 289 288 292 293 295 295 295 294 293 290 288 288 294 295 298 297 295 291 286 277 270 272
172 323 350 345 329 317 310 318 333 333 325 322 315 297 284 287 297 295 279 289 299 293 299 301 299 299 299 300 298 295 293 290 289 291 298 299 298 298 295 288 276 264 267
250 313 327 315 296 291 306 319 329 329 324 323 319 304 299 291 291 286 298 299 304 306 306 304 303 304 304 303 300 297 296 294 290 289 293 297 298 296 292 288 280 265 265
289 308 300 293 291 295 307 320 323 324 323 325 316 307 310 306 294 291 310 319 317 312 310 308 308 308 306 305 302 298 298 295 292 287 287 292 295 294 292 296 292 267 259
298 297 295 298 293 297 314 322 319 323 319 320 320 317 302 320 314 335 338 330 322 316 315 315 313 309 307 304 302 302 302 298 293 289 288 290 291 293 296 297 300 295 273
298 300 304 305 294 306 318 316 314 316 315 310 316 320 315 76 339 330 331 328 323 322 321 318 317 317 314 310 307 302 297 296 295 291 293 294 293 294 294 289 284 300 282
304 315 320 312 306 310 312 311 311 313 311 292 296 266 219 333 331 335 331 327 323 322 321 320 319 318 317 316 311 304 301 297 293 286 286 283 289 290 298 294 275 275 284
311 315 317 312 305 306 309 307 310 311 301 281 249 223 242 311 327 331 327 329 327 325 325 321 318 319 318 318 315 316 316 311 310 306 292 286 283 287 282 283 289 278 273
310 316 318 315 307 304 298 303 313 312 281 248 223 220 268 308 326 330 338 330 328 328 326 322 319 319 321 323 322 320 320 314 315 312 305 293 284 284 279 280 280 253 259
311 307 309 309 307 293 288 306 314 300 279 242 221 241 282 307 319 326 336 328 325 329 326 323 324 325 325 328 325 323 320 327 324 319 316 319 310 293 282 259 260 270 276
303 303 306 313 308 287 286 307 307 294 264 229 227 257 289 298 308 321 328 325 321 323 324 325 327 330 329 329 328 327 329 325 322 320 315 314 315 313 307 275 253 249 254
303 297 314 329 316 290 288 303 298 281 234 220 237 268 283 286 294 306 317 313 313 317 318 322 324 326 329 328 330 329 334 336 330 329 329 328 324 318 310 299 284 252 248
305 299 323 326 318 294 293 295 282 255 239 233 247 270 281 275 277 294 304 314 309 317 312 315 319 328 332 335 334 336 344 346 339 337 335 330 326 318 313 303 280 260 253
308 304 303 306 320 302 287 275 270 254 241 238 262 272 279 272 272 281 297 311 313 321 321 321 327 335 343 342 348 350 350 347 343 339 336 333 336 343 345 346 336 304 247
305 306 294 299 313 303 275 265 259 252 237 265 274 268 270 273 270 272 294 301 311 314 326 327 333 346 351 350 351 354 356 356 354 351 348 348 349 352 354 357 1 10 35
305 293 296 297 299 291 268 264 256 257 262 269 280 273 272 277 271 271 282 280 297 311 323 328 331 338 343 343 345 348 353 356 352 350 351 352 351 353 354 1 9 11 15
291 291 291 296 289 284 258 251 260 262 255 255 264 273 268 274 267 262 268 270 284 301 306 312 318 327 327 331 335 341 342 344 347 348 350 351 351 353 358 1 6 7 6
297 294 289 287 291 276 263 249 258 258 255 260 258 263 266 268 262 255 260 262 272 278 281 289 300 310 316 317 327 331 336 341 346 348 348 351 352 350 352 358 1 359 354
294 287 296 287 291 286 274 251 259 248 250 260 266 259 261 264 260 249 251 251 265 275 277 276 280 288 296 305 307 318 321 332 338 342 345 347 350 354 349 349 346 347 348
299 291 297 282 287 293 273 251 251 251 260 266 262 253 256 263 245 245 246 250 253 261 266 267 272 274 281 291 299 303 313 319 333 338 339 341 344 348 347 344 346 345 348
296 299 307 288 291 286 276 245 244 255 264 267 265 256 256 253 254 255 252 249 255 257 259 260 261 264 272 280 289 290 300 306 318 328 332 335 339 342 345 342 342 344 343
289 294 298 288 290 280 273 249 245 250 259 260 265 264 262 256 253 251 255 253 256 261 261 259 257 256 260 262 269 279 287 296 306 321 327 332 336 339 340 343 347 348 349
286 287 292 291 288 286 275 258 246 252 256 257 260 260 257 256 248 249 253 259 261 261 258 256 257 257 260 263 266 273 276 283 288 312 322 324 330 334 339 340 344 349 356
287 285 286 292 287 290 278 267 253 254 255 258 259 258 257 256 254 254 257 258 259 260 252 250 251 253 254 255 257 263 271 280 285 298 309 313 317 327 331 334 341 345 349
286 281 285 290 291 290 288 280 265 258 258 260 261 261 259 254 253 257 258 257 253 251 249 248 247 247 247 247 251 257 261 269 270 285 298 301 306 316 316 326 327 340 350
299 288 285 291 297 294 294 291 286 281 276 273 271 270 268 264 256 256 256 256 251 246 247 244 244 241 241 240 243 249 249 256 257 270 283 286 292 293 300 310 317 318 335